Location: Chagrin Falls Park
(41.4139°N, 81.3865°W)
Time: 17:48:47
(UTC+00:00)

CZ-2D R/B - Pass Details

Date: 29 October 2020
Orbit: 521 x 538 km, 97.4° (Epoch: 24 November)

Event Time Altitude Azimuth Distance (km) Brightness Sun altitude
Rises 23:40:15 0° 163° (SSE) 2,647 6.7 -14.9°
Reaches altitude 10° 23:42:21 10° 161° (SSE) 1,761 5.8 -15.3°
Maximum altitude 23:46:09 75° 76° (ENE) 548 3.1 -16.0°
Drops below altitude 10° 23:49:57 10° 352° (N) 1,768 6.0 -16.7°
Sets 23:52:03 0° 350° (N) 2,660 6.9 -17.1°
